| time (UTC) | temp F | wind direction | speed knots | gust knots | rain 1hr in | rain 24hr in | rain mn in | humidity % | barometer mb |
| 20260510224545 | 63 | 0.0 | 0.0 | 0.00 | 0.00 | 0.00 | 49 | 1016.2 | |
| 20260510223044 | 63 | 0.0 | 0.0 | 0.00 | 0.00 | 0.00 | 49 | 1016.4 | |
| 20260510221548 | 65 | 0.0 | 0.0 | 0.00 | 0.00 | 0.00 | 48 | 1016.3 | |
| 20260510220043 | 65 | 0.0 | 0.0 | 0.00 | 0.00 | 0.00 | 46 | 1016.3 | |
| 20260510214540 | 64 | 0.0 | 0.0 | 0.00 | 0.00 | 0.00 | 48 | 1015.8 | |
| 20260510213039 | 63 | 0.0 | 0.0 | 0.00 | 0.00 | 0.00 | 48 | 1015.6 | |
| 20260510211543 | 62 | 0.0 | 0.0 | 0.00 | 0.00 | 0.00 | 49 | 1015.4 | |
| 20260510210039 | 62 | 0.0 | 0.0 | 0.00 | 0.00 | 0.00 | 51 | 1015.2 | |
| 20260510204539 | 62 | 0.0 | 0.0 | 0.00 | 0.00 | 0.00 | 50 | 1015.3 | |
| 20260510203037 | 64 | 0.0 | 0.0 | 0.00 | 0.00 | 0.00 | 48 | 1015.3 | |
| 20260510201548 | 65 | 0.0 | 0.0 | 0.00 | 0.00 | 0.00 | 46 | 1015.4 | |
| 20260510200036 | 64 | 0.0 | 0.0 | 0.00 | 0.00 | 0.00 | 48 | 1015.5 | |
| 20260510194542 | 65 | 0.0 | 0.0 | 0.00 | 0.00 | 0.00 | 47 | 1015.4 | |
| 20260510193042 | 67 | 0.0 | 0.0 | 0.00 | 0.00 | 0.00 | 46 | 1015.5 | |
| 20260510191539 | 67 | 0.0 | 0.0 | 0.00 | 0.00 | 0.00 | 48 | 1015.7 | |
| 20260510190049 | 67 | 0.0 | 0.0 | 0.00 | 0.00 | 0.00 | 45 | 1015.5 | |
| 20260510184535 | 65 | 0.0 | 0.0 | 0.00 | 0.00 | 0.00 | 48 | 1015.3 | |
| 20260510183041 | 67 | 0.0 | 0.0 | 0.00 | 0.00 | 0.00 | 46 | 1015.4 | |
| 20260510181545 | 67 | 0.0 | 0.0 | 0.00 | 0.00 | 0.00 | 48 | 1015.3 | |
| 20260510180058 | 66 | 0.0 | 0.0 | 0.00 | 0.00 | 0.00 | 49 | 1015.3 | |
| 20260510174539 | 67 | 0.0 | 0.0 | 0.00 | 0.00 | 0.00 | 48 | 1015.1 | |
| 20260510173040 | 65 | 0.0 | 0.0 | 0.00 | 0.00 | 0.00 | 45 | 1014.9 | |
| 20260510171532 | 66 | 0.0 | 0.0 | 0.00 | 0.00 | 0.00 | 46 | 1015.1 | |
| 20260510170032 | 65 | 0.0 | 0.0 | 0.00 | 0.00 | 0.00 | 50 | 1014.9 | |
| 20260510164530 | 66 | 0.0 | 0.0 | 0.00 | 0.00 | 0.00 | 47 | 1015.1 | |
| 20260510163038 | 68 | 0.0 | 0.0 | 0.00 | 0.00 | 0.00 | 45 | 1015.1 | |
| 20260510161533 | 68 | 0.0 | 0.0 | 0.00 | 0.00 | 0.00 | 47 | 1015.2 | |
| 20260510160023 | 66 | 0.0 | 0.0 | 0.00 | 0.00 | 0.00 | 47 | 1015.1 | |
| 20260510154522 | 66 | 0.0 | 0.0 | 0.00 | 0.00 | 0.00 | 47 | 1015.0 | |
| 20260510153028 | 66 | 0.0 | 0.0 | 0.00 | 0.00 | 0.00 | 47 | 1014.8 | |
| 20260510151526 | 65 | 0.0 | 0.0 | 0.00 | 0.00 | 0.00 | 49 | 1014.4 | |
| 20260510150030 | 64 | 0.0 | 0.0 | 0.00 | 0.00 | 0.00 | 54 | 1014.3 | |
| 20260510144517 | 63 | 0.0 | 0.0 | 0.00 | 0.00 | 0.00 | 55 | 1014.2 | |
| 20260510143024 | 61 | 0.0 | 0.0 | 0.00 | 0.00 | 0.00 | 54 | 1013.9 | |
| 20260510141514 | 61 | 0.0 | 0.0 | 0.00 | 0.00 | 0.00 | 55 | 1013.7 | |
| 20260510140012 | 60 | 0.0 | 0.0 | 0.00 | 0.00 | 0.00 | 58 | 1013.5 | |
| 20260510134510 | 59 | 0.0 | 0.0 | 0.00 | 0.00 | 0.00 | 57 | 1013.6 | |
| 20260510133005 | 58 | 0.0 | 0.0 | 0.00 | 0.00 | 0.00 | 61 | 1013.3 | |
| 20260510131503 | 57 | 0.0 | 0.0 | 0.00 | 0.00 | 0.00 | 64 | 1013.2 | |
| 20260510130059 | 56 | 0.0 | 0.0 | 0.00 | 0.00 | 0.00 | 65 | 1013.1 | |
| 20260510124600 | 55 | 0.0 | 0.0 | 0.00 | 0.00 | 0.00 | 67 | 1013.1 | |
| 20260510123022 | 55 | 0.0 | 0.0 | 0.00 | 0.00 | 0.00 | 70 | 1012.6 | |
| 20260510121522 | 55 | 0.0 | 0.0 | 0.00 | 0.01 | 0.00 | 71 | 1012.3 | |
| 20260510114556 | 55 | 0.0 | 0.0 | 0.00 | 0.01 | 0.00 | 70 | 1012.3 | |
| 20260510113055 | 55 | 0.0 | 0.0 | 0.00 | 0.01 | 0.00 | 70 | 1011.9 | |
| 20260510111555 | 55 | 0.0 | 0.0 | 0.00 | 0.02 | 0.00 | 70 | 1011.8 | |
| 20260510104542 | 56 | 0.0 | 0.0 | 0.00 | 0.02 | 0.00 | 69 | 1011.4 | |
| 20260510103037 | 56 | 0.0 | 0.0 | 0.00 | 0.02 | 0.00 | 68 | 1010.9 | |
| 20260510101538 | 56 | 0.0 | 0.0 | 0.00 | 0.06 | 0.00 | 68 | 1010.6 | |
| 20260510094549 | 57 | 0.0 | 0.0 | 0.00 | 0.06 | 0.00 | 70 | 1010.3 | |
| 20260510093034 | 57 | 0.0 | 0.0 | 0.00 | 0.06 | 0.00 | 70 | 1009.9 | |
| 20260510091531 | 58 | 0.0 | 0.0 | 0.00 | 0.07 | 0.00 | 71 | 1009.6 | |
| 20260510084529 | 58 | 0.0 | 0.0 | 0.00 | 0.07 | 0.00 | 72 | 1009.2 | |
| 20260510083030 | 59 | 0.0 | 0.0 | 0.00 | 0.07 | 0.00 | 74 | 1008.8 | |
| 20260510081538 | 59 | 0.0 | 0.0 | 0.00 | 0.10 | 0.00 | 75 | 1008.6 | |
| 20260510074527 | 60 | 0.0 | 0.0 | 0.00 | 0.10 | 0.00 | 73 | 1008.4 | |
| 20260510073026 | 60 | 0.0 | 0.0 | 0.00 | 0.10 | 0.00 | 73 | 1008.3 | |
| 20260510071529 | 61 | 0.0 | 0.0 | 0.00 | 0.14 | 0.00 | 72 | 1008.6 | |
| 20260510064528 | 61 | 0.0 | 0.0 | 0.00 | 0.14 | 0.00 | 70 | 1008.2 | |
| 20260510063028 | 62 | 0.0 | 0.0 | 0.00 | 0.14 | 0.00 | 69 | 1008.3 | |
| 20260510061526 | 62 | 0.0 | 0.0 | 0.00 | 0.16 | 0.00 | 70 | 1008.2 | |
| 20260510054524 | 63 | 0.0 | 0.0 | 0.00 | 0.16 | 0.00 | 73 | 1008.4 | |
| 20260510053026 | 63 | 0.0 | 0.0 | 0.00 | 0.16 | 0.00 | 73 | 1008.6 | |
| 20260510051522 | 62 | 0.0 | 0.0 | 0.00 | 0.17 | 0.00 | 72 | 1008.4 | |
| 20260510044529 | 62 | 0.0 | 0.0 | 0.00 | 0.17 | 0.00 | 72 | 1008.0 | |
| 20260510043018 | 62 | 0.0 | 0.0 | 0.00 | 0.17 | 0.00 | 74 | 1007.8 | |
| 20260510041518 | 61 | 0.0 | 0.0 | 0.00 | 0.17 | 0.00 | 75 | 1007.7 | |
| 20260510034516 | 61 | 0.0 | 0.0 | 0.00 | 0.17 | 0.00 | 75 | 1007.5 | |
| 20260510033014 | 62 | 0.0 | 0.0 | 0.00 | 0.17 | 0.00 | 73 | 1007.4 | |
| 20260510031513 | 62 | 0.0 | 0.0 | 0.00 | 0.17 | 0.00 | 73 | 1007.2 | |
| 20260510024513 | 62 | 0.0 | 0.0 | 0.00 | 0.17 | 0.00 | 74 | 1007.2 | |
| 20260510023011 | 63 | 0.0 | 0.0 | 0.00 | 0.17 | 0.00 | 73 | 1007.1 | |
| 20260510021510 | 63 | 0.0 | 0.0 | 0.00 | 0.17 | 0.00 | 73 | 1006.8 | |
| 20260510014509 | 63 | 0.0 | 0.0 | 0.00 | 0.17 | 0.00 | 73 | 1006.5 | |
| 20260510013008 | 63 | 0.0 | 0.0 | 0.00 | 0.17 | 0.00 | 71 | 1006.2 | |
| 20260510011513 | 64 | 0.0 | 0.0 | 0.00 | 0.17 | 0.00 | 69 | 1006.2 | |
| 20260510004509 | 66 | 0.0 | 0.0 | 0.00 | 0.17 | 0.00 | 66 | 1005.9 | |
| 20260510003007 | 67 | 0.0 | 0.0 | 0.00 | 0.17 | 0.00 | 65 | 1005.6 | |
| 20260510001507 | 68 | 0.0 | 0.0 | 0.00 | 0.17 | 0.00 | 62 | 1005.4 | |
| 20260509234506 | 69 | 0.0 | 0.0 | 0.00 | 0.17 | 0.00 | 59 | 1005.1 | |
| 20260509233006 | 70 | 0.0 | 0.0 | 0.00 | 0.17 | 0.00 | 56 | 1005.0 | |
| 20260509231504 | 70 | 0.0 | 0.0 | 0.00 | 0.17 | 0.00 | 56 | 1005.0 |